AirNav   Everest Fuels
 
 337 users online  

91N Turtle Lake Municipal Airport
Turtle Lake, North Dakota, USA

GOING TO TURTLE LAKE?


FAA INFORMATION EFFECTIVE 25 FEBRUARY 2021

Location

FAA Identifier: 91N
Lat/Long: 47-30-34.5850N 100-54-59.7600W
47-30.576417N 100-54.996000W
47.5096069,-100.9166000
(estimated)
Elevation: 1916 ft. / 584 m (estimated)
Variation: 10E (1985)
From city: 1 mile SW of TURTLE LAKE, ND
Time zone: UTC -6 (UTC -5 during Daylight Saving Time)
Zip code: 58575

Airport Operations

Airport use: Open to the public
Activation date: 05/1987
Control tower: no
ARTCC: MINNEAPOLIS CENTER
FSS: GRAND FORKS FLIGHT SERVICE STATION
NOTAMs facility: GFK (NOTAM-D service available)
Attendance: UNATNDD
Wind indicator: yes
Segmented circle: no
Lights: ACTVT LIRL RY 08/26 - CTAF.

Airport Communications

CTAF/UNICOM: 122.8

Airport Services

Parking: tiedowns

Runway Information

Runway 8/26

Dimensions: 3148 x 120 ft. / 960 x 37 m
HAS 500' TURF STWY RY 8
Surface: turf, in good condition
RY 08/26, GRASS SOFT SFC WHEN WET.
Runway edge lights: low intensity
Runway edge markings: 08/26 DURG DALGT MARKED WITH YELLOW TIRES AROUND LGTS.
RUNWAY 8  RUNWAY 26
Latitude: 47-30.577333N47-30.575500N
Longitude: 100-55.378000W100-54.614000W
Elevation: 1899.0 ft.1916.0 ft.
Traffic pattern: leftleft
Obstructions: 35 ft. trees, 740 ft. from runway, 200 ft. left and right of centerline, 21:1 slope to clear38 ft. trees, 740 ft. from runway, 200 ft. left and right of centerline, 19:1 slope to clear
+17 FT ROAD 530 FT FROM THR ON CNTRLN, APCH RATIO 31:1.

Airport Ownership and Management from official FAA records

Ownership: Publicly-owned
Owner: TURTLE LAKE ARPT AUTHORITY
1679 13TH AVE NW
TURTLE LAKE, ND 58575
Phone (701) 516-3826
ADDL CTC ERIC JOHNSON ARPT AUTH (701) 391-3028 OR JON SEEGER (701) 220-0707.
Manager: JOE JOHNSON
1679 13TH AVE NW
TURTLE LAKE, ND 58575
Phone (701) 516-3826
CHRMN OF ARPT AUTH.

Airport Operational Statistics

Aircraft based on the field: 1
Single engine airplanes: 1
    
Aircraft operations: avg 67/month *
62% local general aviation
25% transient general aviation
12% military
* for 12-month period ending 26 August 2019

Additional Remarks

DEER AND WILDLIFE ON & INVOF ARPT.
CONFIRM WINTER CONDITIONS WITH AMGR BEFORE USE DUE TO IREG SNOW REMOVAL. CALL (701) 220-0707.
RY 08 HAS 10 FT DROPOFF 50 FT OUT FROM THR.
FOR CD CTC MINNEAPOLIS ARTCC AT 651-463-5588.

Instrument Procedures

There are no published instrument procedures at 91N.

Some nearby airports with instrument procedures:

D05 - Garrison Municipal Airport (23 nm NW)
KHZE - Mercer County Regional Airport (30 nm SW)
5H4 - Harvey Municipal Airport (43 nm NE)
Y19 - Mandan Municipal Airport (45 nm S)
KBIS - Bismarck Municipal Airport (45 nm S)
 
Loc | Ops | Rwys | IFR | FBO | Links
Com | Nav | Svcs | Stats | Notes

Bismarck Aero Center
AirBoss

 
Area around 91N (Turtle Lake Municipal Airport)
 
Road maps at: MapQuest Bing Google
 
Aerial photo
WARNING: Photo may not be current or correct
Aerial photo of 91N (Turtle Lake Municipal Airport)
Do you have a better or more recent aerial photo of Turtle Lake Municipal Airport that you would like to share? If so, please send us your photo.

 
Sectional chart

 
Airport distance calculator
Flying to Turtle Lake Municipal Airport? Find the distance to fly.

From to 91N

Sunrise and sunset
Times for 01-Mar-2021
 Local
(UTC-6)
 Zulu
(UTC)
Morning civil twilight06:5412:54
Sunrise07:2513:25
Sunset18:2700:27
Evening civil twilight18:5800:58

Current date and time
Zulu (UTC)  01-Mar-2021 10:38:50
Local (UTC-6)  01-Mar-2021 04:38:50
 
METAR
KN60 
23nm W 
010952Z AUTO 11003KT M15/M17 A3023 RMK AO1 SLP273 T11501167
KHZE 
30nm SW 
011015Z AUTO 10004KT 10SM FEW021 BKN032 BKN039 M15/M16 A3026 RMK AO2
K5H4 
43nm NE 
011015Z AUTO 07006KT 10SM CLR M22/M24 A3029 RMK AO2
KY19 
45nm S 
011015Z AUTO 07005KT 10SM SCT030 M13/M14 A3024 RMK AO2
KBIS 
45nm S 
010952Z AUTO 06009KT 10SM CLR M12/M14 A3024 RMK AO2 SLP267 T11171144
TAF
KBIS 
45nm S 
010524Z 0106/0206 04014KT P6SM OVC022 TEMPO 0106/0108 SCT022 FM010800 05009KT P6SM BKN090 FM012000 19016KT P6SM FEW150
KMOT 
47nm N 
282205Z 2822/0118 01007KT 3SM -SN BKN035 OVC045 FM010000 36010KT P6SM -SN SCT025 OVC050 FM010300 35012KT P6SM OVC025 FM010600 03010KT P6SM OVC035 FM011200 12012KT P6SM BKN120
NOTAMs
Click for the latest NOTAMs
NOTAMs are issued by the DoD/FAA and will open in a separate window not controlled by AirNav.

 

 
 

Would you like to see your business listed on this page?

 If your business provides an interesting product or service to pilots, flight crews, aircraft, or users of the Turtle Lake Municipal Airport, you should consider listing it here.  To start the listing process, click on the button below
 
Add a business
 

Other Pages about Turtle Lake Municipal Airport

Update a link
 
Copyright © AirNav, LLC. All rights reserved. Privacy Policy  Contact